Regional Weather Roundup
Issued by NWS

Home | Current Version | Previous Version | Graphics & Text | Print | Product List | Glossary On
Versions: 1 2 3 4 5 6 7 8 9 10 11 12 13 14 15 16 17 18 19 20 21 22 23 24 25 26 27 28 29 30 31 32 33 34 35 36 37 38 39 40 41 42 43 44 45 46 47 48 49 50
006
ASUS44 KMEG 130210
RWRTN
TENNESSEE HOURLY STATE WEATHER ROUNDUP
NATIONAL WEATHER SERVICE MEMPHIS TN
800 PM CST FRI FEB 12 2016

TNZ002-004-019-021-049-052-054-088>092-130300-
WEST TENNESSEE

CITY           SKY/WX    TMP DP  RH WIND       PRES   REMARKS
MEMPHIS INTL   CLEAR     43  26  51 NE5       30.35R
NWS MEMPHIS      N/A     38 N/A N/A MISG        N/A
JACKSON        CLEAR     34  25  69 N8        30.36R WCI  27
DYERSBURG      CLEAR     36  25  64 NE8       30.40R WCI  29
UNION CITY     CLEAR     28  23  80 N6        30.38R WCI  22
PARIS          CLEAR     28  21  74 N3        30.37R
LEXINGTON      CLEAR     34  21  60 N6        30.34R WCI  29
$$

TNZ008-025-027-028-033-062-065-066-130300-
NORTH MIDDLE TENNESSEE

CITY           SKY/WX    TMP DP  RH WIND       PRES   REMARKS
NASHVILLE      PTCLDY    34  23  64 NW10G17   30.33R WCI  26
CLARKSVILLE    PTCLDY    32  20  61 NW16      30.36R WCI  21
SMYRNA         PTCLDY    33  24  70 NW9       30.34R WCI  25
COOKEVILLE     MOCLDY    34  25  69 N9        30.26R WCI  26
CROSSVILLE     CLOUDY    30  22  72 NW16G23   30.20R WCI  19
$$

TNZ061-075-076-078-094-096-097-130300-
SOUTH MIDDLE TENNESSEE

CITY           SKY/WX    TMP DP  RH WIND       PRES   REMARKS
FAYETTEVILLE   CLOUDY    37  27  65 NW7G18    30.28R WCI  32
TULLAHOMA      CLEAR     32  27  80 N13       30.28R WCI  22
WINCHESTER     CLEAR     34  27  75 N8        30.28R WCI  27
MCMINNVILLE    MOCLDY    34  27  75 NW10      30.28R WCI  26
COLUMBIA       PTCLDY    36  27  69 N7        30.31R WCI  30
SHELBYVILLE    CLEAR     34  28  80 N7        30.31R WCI  28
$$

TNZ017-018-042-046-047-130300-
NORTHEAST TENNESSEE

CITY           SKY/WX    TMP DP  RH WIND       PRES   REMARKS
TRI CITIES     FLURRIES  31  24  75 W14       30.13R WCI  21
$$

TNZ012-013-036-069-073-074-130300-
CENTRAL EAST TENNESSEE

CITY           SKY/WX    TMP DP  RH WIND       PRES   REMARKS
KNOXVILLE      CLOUDY    34  26  72 W12       30.22R WCI  25
OAK RIDGE      CLOUDY    35  24  64 VRB6      30.23R WCI  30
GATLINBURG     CLOUDY    34  27  75 W8        30.20R WCI  27
MORRISTOWN     CLOUDY    32  27  80 NW7       30.17R WCI  26
$$

TNZ083-085-099-130300-
SOUTHEAST TENNESSEE

CITY           SKY/WX    TMP DP  RH WIND       PRES   REMARKS
CHATTANOOGA    PTCLDY    40  27  59 NW10      30.24R WCI  33
$$

SKY/WX REPORTED AS FAIR MEANS FEW OR NO CLOUDS BELOW
12 THOUSAND FEET.





USA.gov is the U.S. government's official web portal to all federal, state and local government web resources and services.